Weather WX

World > North America > United States > Ohio

Steubenville, Ohio Regional Weather

Lat: 40.37N, Lon: 80.65W
Wx Zone: OHZ050
Feedback

Steubenville, OH Regional Weather

Expires:201906251300;;052328
ASUS41 KCLE 251212
RWRCLE
OHIO REGIONAL WEATHER ROUNDUP
NATIONAL WEATHER SERVICE WILMINGTON, OH
800 AM EDT TUE JUN 25 2019

NOTE: "FAIR" INDICATES FEW OR NO CLOUDS BELOW 12,000 FEET WITH NO
SIGNIFICANT WEATHER AND/OR OBSTRUCTIONS TO VISIBILITY.


OHZ036-037-039>041-045>050-054>059-063>069-073>076-082>088-251300-
  CENTRAL AND SOUTHEAST OHIO
  
CITY           SKY/WX    TMP DP  RH WIND       PRES   REMARKS
COLUMBUS       FAIR      69  63  81 W9        29.93R                  
OSU AIRPORT    FAIR      68  64  87 W8        29.93R                  
BOLTON FIELD   SUNNY     66  64  94 W6        29.95R                  
RICKENBACK AFB FAIR      67  65  94 SW7       29.94R                  
NEWARK         FAIR      70  66  87 W6        29.93R                  
MARION         FAIR      68  61  78 W10       29.92R                  
LANCASTER      FAIR      69  65  86 W8        29.95R                  
ZANESVILLE     FAIR      69  65  86 W7        29.93R                  
NEW PHILLY     FAIR      70  64  81 W7        29.91R                  
$$
  

SKY/WX - Weather  TMP - Temperature  DP - Dew Point  RH - Relative Humidity
WIND - Wind Direction/Speed PRES - Barometric Pressure VSB - Visibility
WCI - Wind Chill Index E13G22 Wind - East Wind 13 mph/Gusts of 22 mph